Canberra, Australia

1:48 PM AEDT on February 26, 2017 (GMT +1100)
Canberra

Weather History for 94926 - December, 2013

Change the Weather History Date:

Saturday, December 7, 2013

  Actual Average Record
Temperature  
Mean Temperature 56 °F -  
Max Temperature 75 °F 80 °F - ()
Min Temperature 36 °F 53 °F - ()
Degree Days  
Heating Degree Days 10    
Growing Degree Days 6 (Base 50)    
Moisture  
Dew Point 41 °F    
Average Humidity 57    
Maximum Humidity 93    
Minimum Humidity 19    
Precipitation  
Precipitation 0.00 in 0.07 in - ()
Sea Level Pressure  
Sea Level Pressure 30.08 in    
Wind  
Wind Speed 5 mph ()    
Max Wind Speed 16 mph    
Max Gust Speed -    
Visibility 6.2 miles    
Events      
T = Trace of Precipitation, MM = Missing Value Source: Averaged Metar Reports

Daily Weather History Graph

Daily Weather History Graph

Search for Another Location

Airport or City:

Trip Planner

Search our weather history database for the weather conditions in past years. The results will help you decide how hot, cold, wet, or windy it might be!

Date:

Astronomy

Dec. 07, 2013 Rise Set
Actual Time 5:41 AM AEDT 8:08 PM AEDT
Civil Twilight 5:11 AM AEDT 8:37 PM AEDT
Nautical Twilight 4:35 AM AEDT 9:14 PM AEDT
Astronomical Twilight 3:55 AM AEDT 9:54 PM AEDT
Moon 10:07 AM AEDT (12/7) 11:43 PM AEDT (12/7)
Length of Visible Light 15h 25m
Length of Day
14h 26m
Waxing Crescent, 22% of the Moon is Illuminated
Dec 7
Waxing Crescent
Dec 10
First Quarter
Dec 17
Full
Dec 26
Last Quarter
Jan 1
New

Hourly Weather History & Observations

Time (AEDT) Temp. Windchill Dew Point Humidity Pressure Visibility Wind Dir Wind Speed Gust Speed Precip Events Conditions
12:00 AM 46 °F - 37 °F 63% 30.04 in - Calm Calm - -  
12:00 AM 46.4 °F - 37.4 °F 71% 30.09 in 6.2 mi Calm Calm - N/A   Unknown
12:30 AM 44.6 °F 42.2 °F 37.4 °F 76% 30.09 in 6.2 mi NNE 4.6 mph - N/A   Unknown
1:00 AM 44.6 °F - 37.4 °F 76% 30.09 in 6.2 mi NE 2.3 mph - N/A   Unknown
1:30 AM 42.8 °F - 37.4 °F 81% 30.09 in 6.2 mi Calm Calm - N/A   Unknown
2:00 AM 41 °F - 37 °F 80% 30.04 in - South 4.6 mph - -  
2:00 AM 41.0 °F 38.0 °F 37.4 °F 87% 30.09 in 6.2 mi South 4.6 mph - N/A   Unknown
2:30 AM 41.0 °F 37.1 °F 37.4 °F 87% 30.09 in 6.2 mi ESE 5.8 mph - N/A   Unknown
3:00 AM 40 °F - 36 °F 82% 30.05 in - North 5.8 mph - -  
3:00 AM 41.0 °F 37.1 °F 37.4 °F 87% 30.09 in 6.2 mi North 5.8 mph - N/A   Unknown
3:30 AM 37.4 °F - 33.8 °F 87% 30.09 in 6.2 mi ENE 2.3 mph - N/A   Unknown
4:00 AM 41.0 °F - 37.4 °F 87% 30.09 in 6.2 mi NNE 1.2 mph - N/A   Unknown
4:30 AM 39.2 °F - 35.6 °F 87% 30.09 in 6.2 mi North 2.3 mph - N/A   Unknown
5:00 AM 38 °F - 35 °F 87% 30.05 in - SE 1.2 mph - -  
5:00 AM 37.4 °F - 35.6 °F 93% 30.09 in 6.2 mi SE 1.2 mph - N/A   Unknown
5:30 AM 39.2 °F 37.0 °F 37.4 °F 93% 30.09 in 6.2 mi East 3.5 mph - N/A   Unknown
6:00 AM 38 °F - 35 °F 83% 30.06 in - North 1.2 mph - -  
6:00 AM 37.4 °F - 35.6 °F 93% 30.09 in - North 1.2 mph - N/A   Clear
6:30 AM 41.0 °F 39.0 °F 37.4 °F 87% 30.12 in - North 3.5 mph - N/A   Clear
7:00 AM 42.8 °F 40.1 °F 39.2 °F 87% 30.12 in - NNW 4.6 mph - N/A   Clear
7:30 AM 48.2 °F - 42.8 °F 82% 30.12 in - East 3.5 mph - N/A   Clear
8:00 AM 50 °F - 41 °F 61% 30.11 in - North 1.2 mph - -  
8:00 AM 50.0 °F - 41.0 °F 71% 30.15 in - North 1.2 mph - N/A   Clear
8:30 AM 51.8 °F - 39.2 °F 62% 30.15 in - NE 3.5 mph - N/A   Clear
9:00 AM 55 °F - 41 °F 49% 30.11 in - NNE 3.5 mph - -  
9:00 AM 55.4 °F - 41.0 °F 58% 30.15 in - NNE 3.5 mph - N/A   Clear
9:30 AM 59.0 °F - 41.0 °F 51% 30.15 in - ESE 2.3 mph - N/A   Clear
10:00 AM 60.8 °F - 39.2 °F 45% 30.12 in - North 2.3 mph - N/A   Clear
10:30 AM 62.6 °F - 39.2 °F 42% 30.12 in - West 6.9 mph - N/A   Clear
11:00 AM 65 °F - 43 °F 34% 30.07 in - WSW 5.8 mph - -  
11:00 AM 64.4 °F - 42.8 °F 45% 30.12 in - WSW 5.8 mph - N/A   Clear
11:30 AM 68.0 °F - 46.4 °F 46% 30.12 in - NE 5.8 mph - N/A   Clear
12:00 PM 67 °F - 39 °F 25% 30.06 in - North 8.1 mph - -  
12:00 PM 66.2 °F - 39.2 °F 37% 30.12 in - North 8.1 mph - N/A   Clear
12:30 PM 69.8 °F - 42.8 °F 38% 30.09 in - North 5.8 mph - N/A   Clear
1:00 PM 68.0 °F - 39.2 °F 35% 30.09 in - NNE 8.1 mph - N/A   Clear
1:30 PM 69.8 °F - 41.0 °F 35% 30.09 in - NNE 6.9 mph - N/A   Clear
2:00 PM 70 °F - 41 °F 23% 30.03 in - North 8.1 mph - -  
2:00 PM 69.8 °F - 41.0 °F 35% 30.09 in - North 8.1 mph - N/A   Clear
2:30 PM 71.6 °F - 42.8 °F 35% 30.06 in - North 11.5 mph - N/A   Clear
3:00 PM 74 °F - 44 °F 24% 30.02 in - NW 11.5 mph - -  
3:00 PM 73.4 °F - 44.6 °F 36% 30.06 in - NW 11.5 mph - N/A   Clear
3:30 PM 73.4 °F - 44.6 °F 36% 30.06 in - North 15.0 mph - N/A   Clear
4:00 PM 73.4 °F - 44.6 °F 36% 30.06 in - North 15.0 mph - N/A   Clear
4:30 PM 73.4 °F - 41.0 °F 31% 30.04 in - North 13.8 mph - N/A   Clear
5:00 PM 74 °F - 43 °F 22% 29.99 in - North 15.0 mph - -  
5:00 PM 75.2 °F - 42.8 °F 31% 30.04 in - North 15.0 mph - N/A   Clear
5:30 PM 73.4 °F - 39.2 °F 29% 30.04 in - North 16.1 mph - N/A   Clear
6:00 PM 74 °F - 41 °F 19% 29.99 in - NW 16.1 mph - -  
6:00 PM 73.4 °F - 41.0 °F 31% 30.04 in - NW 16.1 mph - N/A   Clear
6:30 PM 73.4 °F - 39.2 °F 29% 30.04 in 6.2 mi NNW 15.0 mph - N/A   Unknown
7:00 PM 71.6 °F - 39.2 °F 31% 30.04 in 6.2 mi NNW 12.7 mph - N/A   Unknown
7:30 PM 69.8 °F - 37.4 °F 31% 30.06 in 6.2 mi North 13.8 mph - N/A   Unknown
8:00 PM 68 °F - 38 °F 22% 30.02 in - North 9.2 mph - -  
8:00 PM 68.0 °F - 39.2 °F 35% 30.06 in 6.2 mi North 9.2 mph - N/A   Unknown
8:30 PM 64.4 °F - 50.0 °F 59% 30.09 in 6.2 mi ENE 15.0 mph - N/A   Unknown
9:00 PM 61 °F - 51 °F 60% 30.05 in - ENE 16.1 mph - -  
9:00 PM 60.8 °F - 50.0 °F 68% 30.09 in 6.2 mi ENE 16.1 mph - N/A   Unknown
9:30 PM 59.0 °F - 50.0 °F 72% 30.09 in 6.2 mi NE 9.2 mph - N/A   Unknown
10:00 PM 59.0 °F - 50.0 °F 72% 30.12 in 6.2 mi NNE 5.8 mph - N/A   Unknown
10:30 PM 57.2 °F - 50.0 °F 77% 30.12 in 6.2 mi ENE 5.8 mph - N/A   Unknown
11:00 PM 56 °F - 50 °F 74% 30.09 in - ESE 5.8 mph - -  
11:00 PM 55.4 °F - 50.0 °F 82% 30.12 in 6.2 mi ESE 5.8 mph - N/A   Unknown
11:30 PM 55.4 °F - 50.0 °F 82% 30.12 in 6.2 mi ESE 5.8 mph - N/A   Unknown